This demonstration page uses our WeatherBlox Daily Observations layout. Learn more.

Left ArrowRight Arrow

Hourly Observations for May 12, 2020

Temp ( °F °C ) Dew Point ( °F °C ) Humidity (%) Winds ( mph kmh ) Pressure ( in mb ) Visibility ( mi km ) Precip ( " mm )
12:52 am 00:52 Cloudy with Light Rain 42 5.6 40 4.4 92 92 SE 7 11 30.22 1023 10 16 0.03 0.76
1:52 am 01:52 Cloudy with Light Rain 42 5.6 41 5 96 96 NE 5 7 30.23 1024 8 13 0.05 1.27
2:07 am 02:07 Cloudy with Light Rain 42 5.6 41 5 96 96 ENE 7 11 30.25 1025 8 13 0.01 0.25
2:52 am 02:52 Cloudy with Light Rain 42 5.6 41 5 96 96 NE 5 7 30.23 1024 7 11 0.05 1.27
3:52 am 03:52 Cloudy with Rain 42 5.6 41 5 96 96 E 7 11 30.22 1023 6 10 0.08 2.03
4:52 am 04:52 Cloudy with Light Rain 43 6.1 41 5 93 93 ESE 7 11 30.21 1023 10 16 0.07 1.78
5:22 am 05:22 Cloudy with Rain 43 6.1 42 5.6 97 97 ESE 5 7 30.24 1024 7 11 0.03 0.76
5:31 am 05:31 Cloudy with Rain 43 6.1 42 5.6 97 97 ESE 3 6 30.25 1024 5 8 0.06 1.52
5:52 am 05:52 Cloudy with Rain 43 6.1 42 5.6 97 97 ESE 5 7 30.22 1024 6 10 0.13 3.30
6:31 am 06:31 Cloudy with Light Rain 43 6.1 42 5.6 97 97 SE 7 11 30.25 1024 8 13 0.04 1.02
6:52 am 06:52 Cloudy with Light Rain 43 6.1 42 5.6 97 97 ESE 8 13 30.22 1023 10 16 0.04 1.02
7:52 am 07:52 Cloudy with Light Rain 44 6.7 42 5.6 93 93 SE 13 20 30.22 1023 9 14 0.04 1.02
8:52 am 08:52 Cloudy with Light Rain 44 6.7 43 6.1 96 96 SE 12 19 30.22 1023 4 6 0.01 0.25
9:52 am 09:52 Cloudy with Light Rain 44 6.7 43 6.1 96 96 SE 8 13 30.23 1024 3 5 0.04 1.02
10:16 am 10:16 Cloudy with Light Rain 44 6.7 43 6.1 96 96 SE 10 17 30.24 1024 4 6 0.01 0.25
10:45 am 10:45 Cloudy with Light Rain 45 7.2 43 6.1 93 93 ESE 12 19 30.23 1024 3 5 0.02 0.51
10:52 am 10:52 Cloudy with Light Rain 44 6.7 43 6.1 96 96 ESE 12 19 30.22 1023 4 6 0.03 0.76
11:39 am 11:39 Cloudy with Rain 45 7.2 43 6.1 93 93 SE 10 17 30.23 1024 3 5 0.04 1.02
11:52 am 11:52 Cloudy with Light Rain 45 7.2 43 6.1 93 93 SE 9 15 30.22 1023 4 6 0.06 1.52
12:11 pm 12:11 Cloudy with Rain 45 7.2 44 6.7 97 97 SSE 9 15 30.23 1024 2 3 0.01 0.25
12:25 pm 12:25 Cloudy with Rain 45 7.2 44 6.7 97 97 ESE 12 19 30.22 1023 3 5 0.07 1.78
12:52 pm 12:52 Cloudy with Rain 46 7.8 44 6.7 93 93 ESE 8 13 30.20 1023 3 5 0.12 3.05
1:10 pm 13:10 Cloudy with Rain 46 7.8 44 6.7 93 93 ESE 13 20 30.20 1023 2 3 0.03 0.76
1:27 pm 13:27 Cloudy with Rain 46 7.8 45 7.2 96 96 E 10 17 30.18 1022 2 3 0.14 3.56
1:46 pm 13:46 Cloudy with Light Rain 46 8 45 7 93 93 ESE 12 19 30.18 1022 4 6 0.19 4.83
1:52 pm 13:52 Cloudy with Light Rain 47 8.3 45 7.2 93 93 E 10 17 30.17 1022 4 6 0.20 5.08
2:30 pm 14:30 Cloudy with Light Rain 47 8.3 45 7.2 93 93 ESE 13 20 30.17 1022 8 13 0.02 0.51
2:52 pm 14:52 Cloudy with Light Rain 47 8.3 45 7.2 93 93 ESE 10 17 30.14 1021 10 16 0.03 0.76
3:52 pm 15:52 Cloudy with Light Rain 47 8.3 46 7.8 97 97 E 9 15 30.12 1020 5 8 0.03 0.76
4:12 pm 16:12 Cloudy with Light Rain 48 8.9 46 7.8 93 93 ESE 7 11 30.13 1020 3 4 0.01 0.25
4:32 pm 16:32 Cloudy with Light Rain 47 8.3 45 7.2 93 93 ESE 9 15 30.13 1020 4 6 0.02 0.51
4:39 pm 16:39 Cloudy with Light Rain 47 8.3 45 7.2 93 93 ESE 10 17 30.12 1020 3 4 0.03 0.76
4:46 pm 16:46 Cloudy with Light Rain 46 8 46 8 100 100 ESE 8 13 30.12 1020 3 4 0.03 0.76
4:50 pm 16:50 Cloudy with Light Rain 46 8 46 8 100 100 ESE 7 11 30.12 1020 3 4 0.03 0.76
4:52 pm 16:52 Cloudy with Light Rain 47 8.3 46 7.8 97 97 ESE 7 11 30.11 1020 3 4 0.03 0.76
4:56 pm 16:56 Cloudy with Light Rain 47 8.3 46 7.8 97 97 E 9 15 30.12 1020 3 5 0.01 0.25
5:12 pm 17:12 Cloudy with Light Rain 47 8.3 46 7.8 97 97 ESE 8 13 30.12 1020 3 4 0.01 0.25
5:26 pm 17:26 Cloudy with Mist and Fog 47 8.3 46 7.8 97 97 ESE 9 15 30.12 1020 4 6 0.01 0.25
5:44 pm 17:44 Cloudy with Mist and Fog 47 8.3 46 7.8 97 97 ESE 10 17 30.12 1020 2 3 0.01 0.25
5:52 pm 17:52 Cloudy with Mist and Fog 47 8.3 46 7.8 97 97 ESE 10 17 30.11 1020 3 4 0.02 0.51
6:19 pm 18:19 Cloudy with Mist and Fog 47 8.3 46 7.8 97 97 ESE 10 17 30.13 1020 3 5 0.00 0.00
6:26 pm 18:26 Cloudy with Mist and Fog 47 8.3 46 7.8 97 97 ESE 8 13 30.12 1020 3 4 0.00 0.00
6:34 pm 18:34 Cloudy with Mist and Fog 47 8.3 46 7.8 97 97 ESE 7 11 30.12 1020 2 3 0.00 0.00
6:46 pm 18:46 Cloudy with Mist and Fog 46 8 46 8 100 100 ESE 9 15 30.12 1020 3 5 0.00 0.00
6:52 pm 18:52 Cloudy with Mist and Fog 47 8.3 46 7.8 97 97 E 7 11 30.11 1020 3 5 0.00 0.00
7:00 pm 19:00 Cloudy with Mist and Fog 47 8.3 47 8.3 100 100 E 8 13 30.12 1020 3 4 0.00 0.00
7:13 pm 19:13 Cloudy with Mist and Fog 47 8.3 46 7.8 97 97 ESE 9 15 30.11 1020 3 5 0.00 0.00
7:52 pm 19:52 Cloudy with Mist and Fog 47 8.3 46 7.8 97 97 ESE 9 15 30.10 1019 5 8 0.00 0.00
8:52 pm 20:52 Cloudy 47 8.3 46 7.8 97 97 ESE 8 13 30.11 1020 10 16 0.00 0.00
9:52 pm 21:52 Cloudy 48 8.9 46 7.8 93 93 ESE 8 13 30.10 1019 10 16 0.00 0.00
10:52 pm 22:52 Cloudy 48 8.9 47 8.3 96 96 SE 9 15 30.10 1019 10 16 0.00 0.00
11:52 pm 23:52 Cloudy 49 9.4 47 8.3 93 93 SE 9 15 30.09 1019 10 16 0.00 0.00

Powered by AerisWeather